Wind_Speed
32 32 31 31 32 32 33 35 35 36 36 37 37 37 36 35 34 32 32 31 31 30 30 29 28 28 27 27 27 26 25 26 26 25 25 26 25 24 24 23 23 24 24 24 24 24 23 24 25 27 28 29 31 32 34 35 37 38 38 39 41 42 45 47 49 51 53 55 57 58 60 61 62 63 65 68 71 73 75 78 81 83 84 84 86 89 91
35 34 33 33 33 33 34 35 36 36 36 37 38 38 38 37 35 34 33 32 32 32 31 31 30 30 29 29 29 28 27 27 27 28 28 28 27 27 26 26 26 26 26 26 26 26 26 27 28 29 30 32 33 34 36 37 39 40 40 41 42 44 45 46 49 50 52 54 56 58 59 61 62 64 65 68 71 74 76 78 81 83 85 85 85 88 91
38 37 36 36 35 35 35 36 36 36 37 37 38 39 39 38 37 36 35 34 34 33 33 33 33 32 32 31 31 30 29 29 30 30 30 30 29 29 28 28 27 27 28 27 27 28 28 29 30 31 32 34 35 36 38 39 40 42 43 45 46 47 48 49 50 52 53 54 55 57 60 62 64 67 68 70 72 75 78 81 82 84 87 89 88 88 89
41 40 39 38 38 37 37 38 37 37 37 38 38 39 40 40 39 38 37 36 36 35 35 35 35 34 34 33 33 32 32 32 32 33 32 32 31 30 30 29 29 29 29 29 29 30 31 31 32 33 35 36 37 38 39 41 43 44 46 48 49 51 52 53 54 55 57 58 59 61 62 64 67 69 72 74 74 76 80 83 84 85 87 89 90 89 89
44 44 42 41 40 40 40 40 40 39 39 39 39 40 40 41 41 40 39 39 38 38 37 37 37 36 36 35 35 35 35 35 35 35 34 34 33 32 32 31 31 31 31 31 31 32 33 34 35 36 37 38 39 40 42 43 44 46 48 50 52 53 55 57 57 58 60 62 63 64 65 67 69 71 74 76 77 78 81 83 85 86 87 88 90 91 90
47 47 46 45 43 43 42 42 42 42 41 41 41 41 41 41 42 41 41 41 40 40 39 39 39 38 38 38 38 37 37 37 37 37 36 36 35 34 34 34 33 33 33 33 34 35 36 36 37 38 39 40 41 42 43 45 46 48 49 52 54 55 57 59 61 61 62 63 65 66 67 69 70 72 74 77 79 80 81 82 84 87 87 87 88 90 91
50 50 49 48 47 46 45 44 45 45 44 43 43 43 43 43 43 43 42 42 42 42 41 41 41 41 40 40 40 40 40 40 39 39 38 38 37 36 36 36 36 36 36 36 36 37 38 39 40 40 41 42 43 44 45 47 48 49 51 53 55 57 58 60 62 63 64 65 67 68 69 70 71 73 75 78 80 82 81 81 84 86 87 88 88 89 90
52 52 51 51 50 49 48 47 47 47 47 46 46 46 46 46 45 45 45 45 44 44 44 43 43 43 42 42 42 42 42 42 41 41 40 40 39 39 38 38 38 38 38 38 39 40 40 41 42 43 43 44 45 46 48 49 50 51 53 54 56 58 59 61 63 64 65 66 68 69 70 71 72 74 76 78 81 83 83 83 84 86 87 87 88 89 89
55 54 53 53 52 52 51 50 49 49 49 49 49 48 48 48 48 48 47 47 46 46 46 46 45 45 45 44 44 44 44 44 43 42 42 41 41 40 40 40 40 40 41 41 41 42 43 43 44 45 46 47 48 48 50 51 52 53 54 56 57 59 60 61 63 65 66 66 67 69 70 71 73 75 77 79 81 84 85 85 85 86 87 87 88 89 89
58 58 56 55 55 54 54 53 52 52 51 51 51 51 51 50 50 50 50 50 49 48 48 48 47 47 47 46 46 46 46 45 45 44 44 43 43 42 42 42 42 43 43 43 44 44 45 45 46 47 48 49 50 51 52 53 54 55 56 57 58 59 61 62 63 65 66 67 68 70 71 72 75 76 78 79 82 85 88 88 86 86 88 87 87 88 89
61 61 60 59 58 57 56 56 55 55 54 53 54 54 53 53 53 53 53 52 52 51 51 50 50 50 49 49 49 48 48 47 47 46 46 45 45 45 44 44 45 45 45 45 46 46 47 47 48 49 50 51 52 53 54 55 56 57 58 59 60 60 61 63 64 66 67 68 69 71 73 74 76 77 78 80 83 85 88 89 87 87 88 88 88 89 90
61 62 63 63 62 61 59 58 58 57 57 56 56 56 56 56 55 55 55 55 55 54 54 53 53 52 52 51 51 51 50 50 49 49 48 48 48 47 47 47 47 48 48 48 48 49 49 50 50 51 52 53 54 55 56 58 58 59 60 61 61 62 62 64 66 68 69 70 70 71 73 75 77 78 80 82 83 83 85 87 87 87 88 89 89 89 90
59 61 63 64 65 64 63 62 61 60 59 59 58 58 58 58 58 58 57 57 57 57 56 56 55 55 54 54 54 53 53 52 52 51 51 51 51 51 51 50 50 51 51 51 51 51 52 52 53 54 54 55 56 58 59 60 61 61 62 63 64 65 65 66 67 70 72 73 72 71 73 76 78 79 81 82 82 82 82 84 85 85 86 87 88 88 88
59 60 62 63 65 66 66 66 65 63 62 62 61 61 61 60 60 60 60 60 60 60 59 59 58 57 57 57 56 56 55 55 55 55 54 54 54 54 54 54 54 54 54 54 54 54 55 55 56 56 57 58 59 60 61 62 63 64 65 66 67 68 68 68 69 72 74 75 74 73 73 75 77 78 79 80 81 81 80 81 83 84 85 86 87 87 87
62 62 62 63 64 66 67 68 67 67 66 65 64 64 63 63 62 62 62 62 62 62 61 61 61 60 60 60 59 59 58 58 58 58 58 57 57 57 57 57 57 57 57 57 57 57 57 58 58 59 60 61 61 62 64 65 66 67 68 69 70 71 71 71 72 74 76 78 77 74 73 74 77 78 79 79 80 81 80 81 82 83 84 85 85 86 86
63 64 65 65 65 65 67 68 68 69 69 68 67 67 66 66 65 65 64 64 64 64 63 63 63 62 62 62 62 62 61 61 61 60 61 60 60 60 60 60 60 60 60 60 60 60 60 60 61 61 62 63 63 64 66 67 69 70 71 71 73 73 74 74 75 76 78 81 82 79 76 76 78 79 80 80 80 81 81 81 81 82 83 84 84 85 86
61 64 66 67 68 68 68 68 69 69 70 70 70 69 69 69 68 67 67 67 66 66 65 65 65 64 65 64 64 64 64 64 63 63 63 63 63 63 63 63 63 63 63 63 63 63 63 64 64 64 65 66 66 67 68 69 71 72 73 73 74 76 76 76 77 78 79 82 84 83 81 80 81 81 80 80 80 80 81 81 81 82 83 84 85 85 86
61 63 65 67 69 70 70 70 71 71 71 71 71 71 71 71 71 70 70 69 69 69 68 67 67 67 67 67 66 66 66 66 66 66 66 66 66 66 66 66 66 66 66 66 66 67 67 67 67 67 68 69 69 70 71 72 73 75 75 75 76 77 76 76 77 78 80 82 85 85 82 82 82 81 80 79 79 79 81 82 82 83 85 86 86 86 87
62 63 64 66 68 70 71 72 73 73 73 73 72 72 72 72 73 73 72 72 72 71 71 70 70 69 69 69 69 68 68 68 68 68 68 69 69 69 68 68 69 69 69 69 69 69 69 70 71 70 71 72 72 73 73 75 77 78 77 78 78 77 76 75 76 78 79 82 86 86 83 82 82 81 79 78 79 80 81 82 84 85 86 86 87 87 87
65 65 65 66 67 69 71 73 74 75 75 75 75 75 74 74 74 74 74 74 74 73 73 72 72 72 72 71 71 71 71 71 70 70 70 70 71 71 70 71 71 71 71 71 72 72 72 72 73 73 73 74 75 75 75 76 79 81 81 81 81 79 76 74 76 78 80 82 85 86 84 82 82 81 80 79 80 81 82 83 85 86 86 86 86 86 86
68 67 67 67 67 68 70 72 74 75 76 77 77 77 77 77 76 75 75 75 75 75 75 75 74 74 74 74 74 73 73 73 73 73 73 73 73 73 72 73 73 73 73 73 73 74 74 74 75 75 75 76 76 76 76 76 78 82 84 85 86 84 79 76 77 79 81 83 85 86 85 85 85 83 83 83 84 84 84 84 84 84 84 84 85 85 85
73 72 70 69 69 69 70 71 73 74 76 77 78 79 79 79 79 79 78 77 77 77 76 76 76 76 76 76 76 75 75 75 75 75 75 75 75 75 75 75 75 75 75 75 75 75 76 76 76 76 77 78 77 77 77 77 78 81 83 87 91 89 83 78 78 79 82 84 86 86 86 88 89 87 85 85 86 87 86 85 84 83 84 84 84 84 83
77 76 75 73 72 71 71 72 72 74 75 76 78 79 80 81 81 81 81 81 80 79 79 78 78 78 78 78 77 77 77 77 77 77 77 76 77 77 77 77 77 77 77 77 77 77 77 77 78 78 78 79 78 77 78 78 79 81 83 88 93 91 85 80 79 79 80 84 85 85 85 87 89 87 85 85 85 86 85 84 83 83 83 84 83 82 81
81 81 79 78 76 75 74 74 74 74 75 76 77 78 80 81 82 82 82 83 83 83 82 81 81 81 80 79 79 79 79 79 79 79 78 78 79 79 79 79 79 79 79 79 79 79 79 79 79 79 80 80 79 79 79 79 79 81 83 90 95 93 86 82 79 77 78 81 83 83 83 85 87 85 83 83 83 83 83 82 82 83 83 83 81 80 78
85 85 84 82 81 79 78 77 76 76 76 76 77 78 79 81 82 82 83 84 84 85 85 84 84 84 83 82 82 81 81 81 81 81 80 80 80 80 81 81 80 81 81 81 80 80 80 81 81 81 81 81 81 80 80 80 81 82 84 92 97 93 86 82 78 75 76 78 80 81 81 83 86 84 81 81 81 81 82 82 82 82 82 80 79 77 76
89 89 88 87 85 84 83 81 80 79 78 78 78 78 79 80 81 82 83 84 84 85 85 86 86 86 85 85 85 84 84 84 83 83 83 82 82 82 83 83 83 83 83 82 82 82 82 82 82 83 83 83 83 82 81 80 82 83 87 94 97 92 87 83 78 72 72 76 79 79 77 79 83 82 80 79 79 79 80 81 80 80 79 77 75 75 75
92 92 92 91 90 88 87 86 84 83 82 80 80 79 80 80 81 82 83 84 85 85 85 85 87 87 86 86 87 87 86 86 85 85 85 85 85 85 85 85 85 85 85 85 84 84 84 84 84 85 86 85 84 83 80 80 81 83 89 97 97 91 87 86 81 74 72 74 78 78 75 77 80 80 78 78 78 78 79 79 78 77 76 74 74 74 76
96 95 95 95 94 92 91 90 89 87 86 85 83 83 82 82 82 83 83 84 85 85 85 85 85 86 86 86 87 87 87 87 87 87 87 87 87 87 87 88 88 88 88 87 87 86 86 86 86 87 88 87 85 83 80 78 78 82 90 98 97 92 88 87 83 76 72 74 77 76 75 77 79 78 78 79 78 77 78 77 76 75 74 74 74 74 76
100 99 98 97 97 96 96 94 93 92 91 89 88 87 86 85 84 84 84 84 85 85 85 85 85 85 85 86 86 86 86 86 87 87 87 88 88 88 89 89 89 89 89 88 88 88 87 87 87 88 88 87 85 81 78 76 77 80 89 97 96 91 89 87 82 76 73 75 76 75 76 78 79 78 78 79 77 75 75 74 74 74 74 75 75 76 77
102 103 102 100 99 99 99 99 98 96 95 94 93 91 90 89 88 87 86 86 85 85 85 85 84 84 84 84 85 85 86 86 86 86 87 88 88 89 89 90 90 90 89 88 88 87 86 86 87 87 87 87 84 79 76 75 76 80 87 94 95 92 88 85 81 76 75 76 76 74 76 78 78 76 76 76 75 73 73 73 74 74 75 76 77 78 79
103 104 105 105 103 102 102 102 102 101 99 98 97 96 95 94 92 91 90 89 88 87 86 85 84 83 82 82 83 84 86 86 86 87 87 88 89 89 90 90 90 90 89 89 88 87 86 86 86 86 87 85 82 77 75 76 78 81 86 90 92 92 88 83 79 77 77 77 74 72 74 76 76 74 73 73 73 73 73 74 75 76 77 78 78 79 81
100 103 105 107 107 106 105 104 104 104 103 102 101 100 99 98 97 96 95 94 93 91 89 87 85 83 81 80 81 82 84 85 86 87 88 89 90 90 91 91 91 91 90 89 89 87 86 85 85 86 85 82 79 76 74 76 81 86 86 86 88 89 86 80 75 74 75 76 73 70 69 71 74 74 72 72 72 73 74 75 76 76 78 79 80 81 83
96 99 103 106 109 110 109 108 107 106 106 106 105 104 103 103 102 100 99 98 97 95 93 90 87 85 83 81 80 81 83 84 85 87 88 89 90 90 91 92 92 92 91 90 89 87 85 84 86 85 82 79 77 73 71 74 81 88 87 84 83 84 81 76 72 71 72 74 73 70 67 68 70 73 73 73 73 73 74 75 76 77 79 81 82 83 84
91 95 98 102 106 110 112 112 111 109 109 108 107 107 107 107 106 105 103 102 101 99 96 93 91 89 87 84 83 82 84 86 87 87 88 88 89 90 91 91 92 92 91 90 89 86 84 84 85 82 78 75 72 69 68 72 81 88 89 85 82 81 77 72 70 71 73 73 73 72 70 69 70 72 74 74 74 75 75 76 76 78 80 83 84 85 86
87 90 93 97 102 106 110 113 114 113 112 111 110 109 109 109 109 108 107 106 105 103 100 98 96 93 91 89 87 86 87 88 89 90 90 90 91 92 93 93 92 92 92 90 87 84 84 84 83 78 73 70 67 67 70 75 81 88 91 88 85 83 78 71 69 71 73 75 74 74 72 71 71 73 74 76 77 77 77 77 78 80 82 84 85 86 86
83 86 89 92 97 101 106 110 113 114 115 114 113 112 111 111 111 112 111 110 109 107 105 102 100 97 95 94 93 92 92 92 92 93 94 94 94 95 96 96 95 94 93 90 86 84 85 85 82 77 71 66 64 68 74 79 83 89 92 91 90 88 82 75 72 72 73 75 76 75 74 74 74 75 76 78 80 80 79 80 81 81 83 85 86 86 86
79 83 86 88 92 96 100 105 109 112 114 116 116 116 114 113 113 113 112 112 112 110 109 107 104 101 100 100 98 96 96 95 95 97 98 99 99 100 100 99 99 98 96 92 88 87 87 86 83 78 71 65 66 71 78 82 85 89 93 96 95 92 85 81 79 77 75 75 78 78 76 75 76 77 79 80 82 83 82 81 82 82 83 85 85 86 86
76 80 83 85 88 91 95 99 104 108 111 115 117 117 117 116 115 114 113 113 113 113 112 110 108 105 105 105 103 102 101 100 100 101 102 103 104 104 104 104 103 102 99 94 91 91 90 88 86 81 72 67 70 77 82 85 87 90 96 102 102 96 89 86 85 84 81 79 80 80 80 78 78 80 81 83 84 84 84 83 83 83 84 85 86 86 87
75 77 80 83 85 88 91 94 98 103 106 110 114 116 117 118 117 116 115 115 114 114 114 113 111 110 110 109 108 107 107 106 105 105 105 107 108 108 108 107 106 105 102 98 95 95 93 92 91 85 74 70 75 82 85 88 90 92 97 104 107 104 99 94 91 90 88 86 84 84 84 83 82 82 83 84 85 86 86 86 85 85 85 85 86 87 88
74 75 78 81 83 86 88 91 94 97 101 105 109 112 115 117 119 119 119 117 116 115 115 114 114 114 114 114 113 113 113 112 111 110 110 111 111 110 110 109 109 108 106 102 100 99 98 97 96 88 77 74 81 85 87 90 93 95 98 103 107 109 108 103 99 97 95 93 90 89 89 87 86 85 85 86 87 88 88 88 88 87 86 87 88 89 89
74 74 76 79 81 83 86 88 91 94 97 101 104 107 110 114 117 119 120 120 119 119 118 117 116 116 116 117 118 118 118 118 117 116 115 114 113 112 112 111 111 111 108 105 104 104 103 102 99 90 81 81 86 89 88 91 95 98 102 105 107 110 110 109 106 103 101 98 96 95 94 92 91 90 89 89 90 90 90 90 89 89 88 88 89 90 90
75 74 75 77 79 81 84 86 88 91 93 97 100 102 105 109 113 116 119 120 121 121 121 120 120 119 119 120 120 121 121 121 121 120 119 118 116 115 115 115 114 113 111 109 109 109 107 106 102 93 87 88 91 91 91 92 94 97 102 107 110 111 112 112 110 109 108 105 102 100 98 96 95 94 93 93 93 93 93 92 91 90 89 89 91 92 92
76 75 75 75 77 79 82 84 86 89 91 93 95 98 101 104 108 111 115 119 121 122 122 123 123 123 123 123 123 122 122 123 122 122 122 121 120 120 119 118 117 116 114 114 114 112 111 109 104 97 94 95 97 95 95 95 95 96 100 106 110 113 114 114 114 115 114 112 109 105 103 100 98 98 97 96 96 95 95 94 94 93 92 92 94 95 95
78 77 76 75 76 78 80 81 83 86 87 89 91 94 97 100 103 107 110 114 117 120 122 123 124 124 125 125 125 125 124 124 123 123 123 123 123 123 122 121 121 120 119 118 117 115 113 111 107 103 101 102 101 100 99 99 99 99 100 104 109 112 113 114 116 118 119 119 117 114 110 106 103 102 101 100 99 98 97 97 97 96 95 95 97 98 98
79 78 77 76 76 77 78 78 79 82 83 85 88 91 94 97 100 103 106 109 112 116 119 121 123 124 125 126 126 126 126 126 126 125 125 125 125 124 124 124 123 123 122 120 119 117 116 114 111 109 108 107 106 105 105 104 104 103 103 104 108 111 112 112 114 116 119 121 122 122 120 115 111 107 105 104 103 102 101 100 99 98 98 99 100 100 101
79 79 78 77 75 76 76 75 75 77 80 83 86 89 92 95 98 100 103 105 108 111 114 117 119 121 123 124 125 126 126 127 127 127 127 127 126 126 125 125 125 124 123 121 120 118 117 116 115 115 114 113 111 111 111 110 109 109 108 107 108 111 112 112 112 114 116 119 121 123 124 123 121 117 112 109 107 107 106 104 101 100 101 102 103 103 102
79 79 79 77 75 74 73 73 73 76 79 82 84 87 90 93 96 98 101 103 105 107 110 112 115 117 119 121 123 124 125 126 127 127 127 127 127 127 126 126 125 124 123 122 120 118 118 119 120 120 119 118 117 116 115 114 113 113 112 111 111 112 113 113 113 113 115 118 119 121 122 124 125 124 122 119 115 113 110 107 105 104 104 105 105 105 104
78 79 78 76 74 72 72 73 74 76 78 80 83 86 88 91 93 96 99 101 103 106 108 110 112 114 115 117 118 120 121 123 124 125 126 126 126 125 124 124 124 124 123 122 121 120 121 122 123 124 123 122 121 119 118 117 116 116 116 115 115 115 115 114 114 114 115 117 119 120 122 123 124 125 125 125 124 121 117 113 110 108 108 108 108 107 105
77 77 77 76 74 73 74 75 76 75 76 80 84 86 87 90 92 95 98 100 102 104 106 108 110 111 113 114 115 115 116 118 120 122 122 122 122 122 121 121 121 121 122 122 123 123 124 126 127 127 127 126 125 123 121 120 120 119 119 119 118 118 117 116 116 115 116 117 118 120 121 123 123 124 124 125 126 126 124 120 116 113 112 111 110 108 106
76 75 74 75 75 74 76 78 78 75 76 80 84 85 87 89 91 94 97 99 101 103 105 106 108 109 110 111 112 112 113 115 116 117 117 116 116 117 118 118 118 118 119 122 124 125 126 127 128 129 129 129 128 127 126 124 123 122 122 122 121 121 120 119 119 119 119 118 118 119 120 121 123 123 123 124 124 125 125 124 122 120 118 116 114 111 109
74 72 72 74 76 77 78 79 79 77 77 80 83 85 87 89 91 93 96 98 100 102 104 105 106 108 108 108 109 110 111 112 113 112 111 110 111 112 113 112 112 114 117 120 123 124 124 125 126 128 128 128 128 128 128 127 126 125 125 124 123 122 122 122 122 121 121 121 121 120 120 121 121 122 123 124 124 124 124 124 124 124 123 121 118 115 112
71 71 72 74 76 78 80 81 80 79 79 81 83 85 86 88 91 94 96 98 99 101 103 104 106 107 106 106 107 108 109 108 107 106 104 104 105 107 107 107 109 112 115 118 119 120 121 121 123 124 125 125 126 127 127 126 126 126 125 125 124 123 122 122 121 120 120 120 120 120 120 120 121 121 121 122 123 123 123 123 123 124 124 123 120 116 113
Wind_Direction
207 206 205 203 203 203 202 201 202 203 204 205 207 209 210 210 211 211 212 213 215 217 219 221 223 224 225 225 226 227 228 231 235 239 242 245 246 247 248 250 253 257 261 266 271 277 283 287 290 293 297 300 303 306 308 310 313 316 319 322 324 325 327 328 329 331 333 335 337 338 339 340 342 344 345 346 346 348 349 349 349 349 349 350 349 349 349
210 210 209 208 207 207 207 206 206 207 208 209 211 212 214 215 216 218 218 219 219 220 222 224 225 227 228 229 229 231 232 234 237 240 242 245 247 248 250 252 255 259 263 268 273 279 282 285 289 292 295 298 301 303 306 308 311 314 317 319 321 322 324 326 327 329 331 333 335 336 338 339 341 342 344 345 346 347 348 349 349 348 347 348 349 350 349
213 212 212 211 210 211 211 210 211 211 212 213 214 216 217 219 221 222 223 223 224 224 225 227 228 229 231 232 233 235 236 238 240 242 244 245 247 250 252 255 257 261 265 270 274 278 281 285 287 290 293 296 299 302 305 308 311 314 316 318 320 322 323 325 327 329 331 332 334 336 338 339 340 341 343 345 346 347 347 347 347 348 347 347 348 350 349
215 215 215 214 213 214 214 214 214 215 216 217 218 219 220 222 224 226 227 227 227 228 228 229 230 232 233 235 236 238 240 241 243 244 246 248 250 252 255 257 260 263 267 271 274 278 280 283 286 289 292 295 298 301 304 307 311 314 316 318 320 322 324 326 328 330 331 333 335 336 337 338 340 341 342 343 345 346 347 346 346 347 347 347 347 347 347
217 217 217 217 216 216 216 217 217 218 219 220 221 222 223 225 226 228 229 230 230 231 231 232 233 235 236 238 240 242 243 245 246 247 249 251 252 254 256 259 262 264 268 271 274 277 280 283 286 289 292 295 298 301 304 308 311 314 316 318 320 322 324 326 328 329 330 332 334 335 336 337 339 341 341 342 343 345 346 345 345 346 346 347 346 345 346
220 219 219 219 219 219 218 219 219 220 221 222 223 224 226 227 229 230 231 231 232 233 234 235 236 238 239 241 243 245 246 248 249 250 252 253 255 256 258 260 263 265 268 271 274 277 280 283 286 289 292 295 299 301 304 307 310 313 315 317 319 321 323 324 326 328 329 330 332 333 335 337 339 339 340 341 342 343 344 344 345 345 345 346 345 345 345
223 222 222 222 221 221 221 221 221 221 223 223 224 226 227 229 230 232 233 233 234 235 236 237 239 240 242 244 246 248 249 250 252 253 254 256 257 258 260 262 264 267 269 272 275 278 281 284 287 290 293 296 298 301 304 306 309 312 314 316 318 319 321 323 324 326 328 329 330 332 334 336 337 338 340 341 341 341 342 344 344 344 344 344 344 344 344
228 226 225 225 224 224 223 223 223 223 224 225 226 227 228 230 231 233 234 235 236 237 238 239 241 242 244 245 247 249 250 252 254 255 257 258 260 261 262 264 266 268 271 273 276 279 282 285 287 290 293 295 298 300 303 305 308 310 312 314 316 318 319 321 322 324 326 327 329 331 333 334 336 338 339 340 339 339 340 343 343 343 343 343 343 343 343
231 231 230 229 227 227 226 225 225 225 225 226 227 228 229 230 232 233 235 236 237 238 240 241 242 244 245 246 248 249 251 253 255 257 258 260 262 263 264 266 268 270 272 275 277 280 282 285 287 290 293 295 298 300 303 305 307 309 311 313 315 316 318 319 321 322 323 325 327 329 331 333 335 337 338 338 339 339 340 341 343 342 342 342 342 342 342
230 232 233 233 232 231 230 229 228 228 227 227 228 229 230 231 232 233 235 237 238 239 241 242 243 245 246 247 249 250 252 253 255 257 259 261 263 264 266 267 269 271 273 275 278 280 282 285 287 290 293 295 298 300 302 304 306 308 310 312 313 315 317 318 319 320 321 324 326 328 330 333 334 336 336 337 338 339 339 340 341 341 340 341 341 341 341
229 231 232 234 235 235 234 234 233 231 230 230 230 230 231 232 233 234 235 237 238 240 241 243 244 246 247 248 250 251 252 254 255 257 259 261 263 265 266 268 270 272 273 276 278 280 282 285 287 290 292 295 297 299 301 303 305 307 309 310 312 314 315 317 318 319 321 323 326 328 330 332 333 334 336 337 338 339 338 338 339 340 339 339 340 340 340
228 230 231 233 234 236 237 237 237 236 235 234 233 232 232 233 234 235 235 237 239 240 242 243 245 247 248 249 250 252 253 255 256 258 259 261 263 265 266 268 270 272 274 276 278 280 282 285 287 289 292 294 297 298 300 302 304 306 307 309 311 312 314 316 318 319 320 322 325 327 329 330 332 334 335 336 337 338 337 337 337 339 338 338 339 339 339
228 230 231 233 234 235 236 237 238 239 239 239 237 236 236 235 235 236 237 238 239 240 242 244 245 247 248 250 251 252 254 255 257 258 259 261 263 265 266 268 269 271 274 276 278 280 282 285 287 289 292 294 296 298 299 301 303 304 306 308 310 312 314 316 317 318 319 321 323 327 329 330 332 333 334 334 335 336 336 336 336 337 337 337 338 338 338
230 230 231 233 234 235 236 237 238 239 240 241 241 241 240 239 239 239 239 239 240 241 243 244 245 247 248 250 251 253 254 256 257 258 260 261 263 264 266 268 269 271 273 275 278 280 282 284 287 289 291 293 295 296 298 300 302 303 306 308 310 312 313 315 317 317 318 320 323 326 329 330 330 331 332 333 333 334 335 335 335 336 336 336 336 336 337
231 231 232 233 235 236 237 237 238 238 239 240 242 243 243 243 243 242 242 242 242 243 244 245 246 247 248 250 251 253 254 256 257 259 260 262 263 265 266 268 270 271 273 275 277 279 281 283 285 287 290 291 293 295 297 299 301 303 305 307 309 311 313 315 316 317 318 319 322 325 328 329 329 330 331 332 333 333 334 334 334 335 335 334 335 335 336
234 233 233 233 234 236 237 238 239 239 240 240 241 242 243 245 246 246 246 246 246 246 247 247 248 249 249 251 252 253 255 256 257 259 261 262 264 265 267 268 270 271 273 275 276 278 280 282 284 286 288 290 292 294 296 298 300 302 304 306 308 310 312 314 316 317 318 319 321 324 327 328 329 329 331 332 333 333 333 333 333 333 333 333 334 335 335
236 236 235 235 235 235 237 238 240 241 241 241 242 242 243 244 245 247 248 249 249 249 250 250 250 251 251 252 253 254 255 257 258 259 261 262 264 265 267 269 270 272 273 275 276 278 280 282 283 285 287 289 291 293 295 297 299 301 303 305 307 309 311 314 315 317 318 319 320 323 326 328 328 329 330 331 332 331 331 331 331 332 332 333 334 335 335
237 237 238 238 237 237 236 237 239 240 242 243 243 243 243 244 245 246 247 249 250 251 252 253 253 254 254 255 255 256 257 258 259 260 261 263 264 266 267 269 270 272 273 275 276 278 280 282 283 285 287 289 291 293 295 297 298 300 302 304 306 308 310 313 315 316 318 318 319 321 325 327 327 327 328 329 330 330 330 330 330 331 332 333 334 335 336
236 237 238 239 239 239 239 238 238 239 241 242 244 245 245 245 246 246 247 248 249 251 252 253 254 255 256 257 258 258 259 260 261 262 263 264 265 267 268 269 271 272 274 275 277 278 280 282 283 285 287 288 290 292 294 296 298 299 301 303 305 307 309 312 314 315 317 318 318 320 324 325 325 325 327 328 329 329 329 329 330 332 333 333 334 335 335
236 237 238 239 240 240 241 241 240 240 240 241 243 244 245 246 247 247 247 248 249 250 251 253 254 256 257 258 259 260 261 262 263 264 264 266 267 268 269 270 272 273 274 276 277 279 280 282 284 285 287 288 290 292 294 296 298 300 302 303 304 306 309 312 314 315 317 318 318 320 322 323 323 324 326 327 328 328 329 330 331 332 332 333 333 334 335
236 237 238 239 239 240 241 242 242 242 242 242 242 243 244 246 247 248 249 249 249 250 251 252 254 255 256 258 259 261 262 263 264 265 266 267 268 270 271 272 273 275 276 277 278 280 281 283 284 286 287 289 291 292 294 296 298 300 302 303 304 306 309 312 314 316 317 317 318 320 322 322 322 324 326 327 327 327 328 330 331 331 331 331 332 333 334
237 237 237 238 239 240 241 242 243 243 244 244 244 244 244 245 246 247 249 250 250 251 252 253 254 255 256 258 259 260 262 263 265 266 267 268 269 271 272 273 274 276 277 278 280 281 282 284 285 287 288 289 291 293 295 297 298 300 302 303 303 304 308 312 314 315 316 317 318 320 322 322 321 323 325 326 326 327 328 329 329 329 329 330 331 332 333
238 238 238 238 239 240 241 242 243 243 244 245 245 246 246 246 246 246 248 249 250 251 252 253 254 255 256 257 259 260 262 263 264 266 267 268 270 271 272 273 275 276 277 279 280 281 283 284 286 287 288 289 291 293 295 297 299 300 302 302 301 303 307 310 312 314 316 316 317 319 320 320 319 321 324 324 325 325 326 327 328 328 328 330 331 332 333
240 239 239 239 239 239 240 242 243 243 244 245 245 246 247 247 247 247 248 249 249 250 252 253 254 255 256 257 259 260 261 263 264 266 267 268 269 271 272 273 275 276 277 278 280 281 283 284 285 287 288 289 291 293 295 297 299 300 302 301 299 302 306 308 310 313 314 315 316 317 318 318 317 319 321 322 322 323 324 325 326 327 328 329 330 331 332
241 241 240 240 240 240 240 241 242 243 244 245 246 246 247 248 248 248 249 249 250 250 251 252 253 255 256 257 258 260 261 262 264 265 266 268 269 270 272 273 274 275 277 278 279 281 282 284 285 286 288 289 291 293 295 297 298 300 301 299 298 301 304 306 308 311 313 314 314 315 316 316 316 317 320 320 321 322 322 323 325 326 327 328 329 330 332
240 241 241 241 240 240 240 241 241 242 244 245 246 246 247 248 248 249 249 250 250 251 252 253 254 254 255 257 258 259 260 262 263 265 266 267 269 270 271 272 274 275 276 278 279 280 282 283 285 286 287 288 290 292 294 296 298 300 300 297 297 300 303 304 306 310 312 312 312 312 315 315 314 315 317 318 319 320 321 322 323 325 326 328 329 330 331
238 240 241 241 241 241 241 241 242 242 243 244 245 246 247 248 249 250 250 250 251 251 252 253 254 255 256 257 258 259 260 261 263 264 265 267 268 269 270 272 273 274 275 277 278 280 281 282 284 285 286 287 288 290 293 296 298 300 299 296 297 300 302 303 305 309 312 312 310 311 313 313 312 313 315 316 317 319 320 321 323 324 326 328 329 330 330
239 239 239 241 241 242 242 242 242 242 243 243 244 245 246 248 248 249 250 251 252 252 252 253 254 255 256 257 258 259 260 262 263 264 265 266 267 269 270 271 272 273 274 275 277 278 279 281 282 283 285 286 287 289 292 295 297 298 297 295 297 300 301 302 304 308 311 310 309 310 312 311 310 312 314 315 317 319 320 321 323 324 326 327 328 329 330
242 241 240 240 241 242 242 243 243 243 243 243 244 245 246 247 248 249 250 251 252 252 253 253 254 255 257 258 259 260 261 262 263 264 265 266 267 268 269 270 271 272 273 274 275 276 278 279 281 282 283 284 286 289 292 295 297 297 295 295 296 298 299 301 304 307 309 308 308 310 310 309 310 313 314 315 318 320 320 322 323 324 325 326 327 328 329
243 243 242 241 240 241 242 243 243 243 244 244 245 245 246 247 247 248 249 250 251 252 253 253 254 255 257 258 260 261 262 262 263 264 265 266 267 267 268 269 270 271 272 273 274 275 277 278 279 281 282 284 286 290 293 295 295 295 294 294 295 296 297 299 303 306 307 306 307 309 309 308 311 314 315 316 319 320 321 322 323 323 324 325 325 326 327
242 243 244 243 242 241 241 242 243 244 244 244 245 246 246 246 247 248 249 249 250 251 252 253 254 255 257 258 260 262 262 263 264 265 265 266 267 267 268 269 270 270 271 272 273 274 276 277 279 280 282 284 287 291 294 295 295 293 291 291 293 294 296 299 303 305 306 305 307 309 309 310 312 314 316 317 319 319 320 321 322 322 322 323 324 325 326
243 243 243 244 244 243 242 242 243 244 244 245 245 246 246 247 247 248 248 249 250 251 251 252 253 254 256 258 260 261 263 264 264 265 266 266 267 267 268 269 270 271 271 272 273 274 276 277 279 280 282 285 288 292 295 296 294 290 288 289 290 292 295 299 303 305 305 304 306 308 310 312 313 314 315 316 317 317 318 319 320 320 321 321 323 324 325
245 244 243 243 244 245 244 243 243 243 244 245 245 246 247 247 248 248 248 249 250 251 252 252 253 254 255 257 259 261 262 263 264 264 265 266 266 267 268 269 269 270 271 272 273 274 276 277 278 280 283 286 289 292 295 294 291 288 288 288 289 291 294 298 301 303 302 302 304 306 308 310 311 311 312 314 314 315 316 317 318 319 319 320 321 323 324
247 246 245 244 244 244 245 245 245 244 244 244 245 246 247 248 248 249 249 249 250 251 252 252 253 254 255 256 257 259 261 262 263 264 264 265 266 266 267 268 268 269 270 271 272 273 275 276 277 279 283 287 290 293 294 291 288 288 288 288 289 290 293 297 300 300 300 301 303 305 306 308 309 309 310 311 311 312 313 314 315 317 318 319 320 322 323
249 248 247 246 245 244 244 245 245 246 245 245 245 245 247 248 249 250 250 250 251 251 251 252 252 253 254 255 256 257 258 260 261 263 264 264 265 265 266 266 267 268 269 269 271 273 274 275 276 279 283 287 291 293 291 288 287 287 288 289 290 290 292 294 296 297 298 300 301 302 304 306 306 307 308 308 308 310 311 313 314 316 317 318 319 321 322
252 251 249 248 247 246 245 245 245 246 246 246 246 245 246 247 248 250 250 251 252 252 252 252 252 253 254 255 255 255 257 258 260 261 262 263 264 264 265 266 266 267 268 269 270 272 273 274 276 279 282 287 291 291 289 287 286 286 287 289 289 289 291 293 293 293 295 297 298 299 301 303 304 304 305 306 307 308 310 311 313 315 316 317 318 319 320
255 253 252 250 249 248 247 246 246 246 246 247 247 247 246 246 247 249 250 251 252 253 253 254 254 254 255 255 255 255 256 257 258 259 261 262 263 263 264 265 266 266 267 269 270 271 272 274 275 277 281 285 288 287 286 285 285 286 287 287 286 287 290 292 292 292 293 294 295 296 297 299 300 301 303 304 305 306 308 310 312 313 315 316 317 318 319
257 256 254 252 251 250 248 248 247 247 246 246 247 248 248 248 248 248 249 250 252 253 254 254 255 255 255 256 255 255 256 256 257 257 259 260 261 262 263 264 265 266 267 268 270 271 272 273 274 276 278 283 285 284 284 284 284 285 286 286 286 287 289 289 290 291 291 292 293 294 295 297 299 300 301 302 303 305 306 308 310 312 313 314 314 315 316
259 258 257 255 253 252 250 249 249 248 248 247 247 248 248 249 249 249 249 250 251 252 253 254 254 255 255 256 256 256 256 256 256 256 258 259 260 262 263 264 266 267 268 269 270 271 272 273 274 275 277 281 282 282 283 283 284 284 284 286 287 289 289 289 290 291 291 292 293 294 295 296 298 298 300 301 302 303 305 307 308 309 310 311 312 313 314
260 260 259 257 255 253 252 251 250 249 249 249 249 248 248 249 249 250 250 250 250 251 252 253 253 254 255 256 256 256 257 257 257 257 257 258 260 261 263 264 266 268 269 270 271 271 272 272 273 274 277 279 280 280 281 283 284 284 285 285 287 288 289 290 291 291 291 292 293 293 294 295 296 297 298 299 300 302 303 305 306 307 308 310 310 311 311
262 261 259 258 257 255 254 253 252 251 250 250 250 250 249 249 249 250 250 251 251 251 252 252 253 254 255 255 256 256 256 257 258 258 258 259 260 262 263 264 266 267 268 269 270 271 271 272 273 275 276 277 277 278 279 281 283 285 285 286 286 287 288 289 290 290 290 291 292 293 294 295 296 296 297 298 299 300 301 303 304 305 306 308 308 308 309
264 262 260 259 258 257 256 255 253 252 252 252 252 251 251 251 250 250 251 251 251 252 252 253 253 254 254 255 256 256 257 257 258 259 260 260 261 262 263 264 265 266 268 268 269 270 271 272 273 275 275 275 275 276 277 279 281 283 284 285 286 287 288 289 290 291 291 291 292 292 293 294 294 295 295 296 297 298 299 300 301 302 304 305 305 305 306
265 264 262 260 259 259 257 256 255 254 253 253 253 253 253 253 252 252 251 251 252 252 252 253 254 254 255 255 256 256 257 258 259 259 260 261 261 262 263 264 265 266 267 268 268 270 271 272 273 274 274 273 274 275 276 277 278 280 282 284 285 286 288 289 290 291 291 291 291 291 291 292 293 293 293 294 295 296 297 298 299 301 302 303 303 303 304
266 265 263 262 261 260 259 258 257 256 256 255 255 254 254 254 254 254 253 253 252 252 253 253 254 254 255 256 257 257 258 258 259 260 260 261 262 262 263 264 265 265 266 267 268 269 270 272 273 273 273 273 273 274 275 275 276 277 278 280 282 284 286 288 290 290 291 291 291 291 291 291 291 291 292 293 294 295 295 296 298 299 300 300 300 300 301
267 266 265 263 262 261 260 260 259 259 258 257 256 256 255 255 254 255 255 254 254 254 253 253 254 254 255 256 256 257 258 258 259 260 260 261 262 262 263 264 265 265 266 267 268 269 270 271 272 272 272 272 273 274 274 274 275 275 276 277 279 281 283 285 287 288 290 291 292 293 293 293 292 292 292 292 293 293 294 294 296 297 298 298 298 298 299
267 266 266 264 263 263 262 262 261 261 260 259 257 256 255 255 255 255 255 255 255 255 255 255 255 255 255 255 256 257 258 259 259 260 260 261 262 262 263 264 265 265 266 267 268 269 270 271 271 271 271 272 272 273 273 274 274 275 275 276 277 278 280 282 283 285 287 289 290 292 293 294 294 293 293 292 292 292 293 293 294 295 295 295 296 297 298
267 266 266 265 265 264 264 264 263 261 260 260 258 257 256 255 255 256 256 256 256 257 257 257 256 256 256 256 256 257 257 258 259 260 260 261 261 262 263 264 265 266 267 268 269 270 270 271 271 271 271 271 272 272 272 273 274 274 275 275 275 276 277 279 280 282 284 285 287 288 290 291 293 293 294 294 293 293 293 293 294 294 294 294 295 295 296
266 266 266 266 266 265 265 265 263 262 261 261 260 258 257 256 256 255 256 256 257 257 257 257 257 257 257 257 257 257 257 258 259 259 260 261 262 262 263 264 265 266 267 268 269 270 270 271 271 272 272 272 272 272 273 273 274 274 274 275 275 276 276 277 278 279 280 282 283 285 286 288 289 291 292 293 294 294 294 294 294 293 293 293 294 294 295
266 266 266 267 266 266 265 264 263 262 262 262 261 259 258 257 256 256 256 257 257 258 258 258 259 259 259 259 259 259 259 259 259 260 260 261 262 263 264 264 265 266 267 268 269 269 270 270 271 271 272 272 273 273 273 273 274 274 275 275 276 276 276 277 278 278 279 279 281 282 284 285 287 288 289 290 292 293 293 294 294 293 293 293 293 293 295
266 266 266 267 266 265 264 264 263 262 262 262 261 261 260 259 258 258 258 258 258 259 259 260 260 260 260 260 261 261 261 261 261 261 262 262 263 264 265 266 266 267 268 268 268 268 269 269 270 271 271 272 272 273 273 273 273 273 274 274 275 275 276 277 277 278 278 279 280 281 282 283 285 286 287 288 289 290 292 292 293 293 293 293 293 294 295
267 267 266 266 266 265 264 263 263 263 262 262 262 261 261 260 259 259 259 259 260 260 261 261 262 262 262 262 262 262 262 262 262 263 264 265 265 266 267 268 269 269 269 269 268 268 269 269 270 270 271 272 272 273 273 273 273 273 273 273 273 274 274 275 276 277 277 278 279 280 281 282 283 284 285 286 287 288 289 290 291 292 292 293 293 294 295
268 268 266 265 266 265 265 264 263 262 262 262 262 262 262 261 261 260 259 259 260 260 261 262 262 263 263 263 263 263 263 264 264 265 266 267 268 269 270 270 270 270 270 269 269 270 270 270 270 271 271 272 272 272 273 273 274 274 274 274 274 274 274 274 275 275 276 277 278 279 280 281 281 282 283 284 285 286 287 288 289 290 291 292 292 293 294
Height
10766 10768 10769 10771 10772 10774 10775 10777 10778 10779 10781 10782 10783 10784 10785 10786 10786 10787 10787 10788 10789 10789 10789 10790 10790 10790 10790 10791 10791 10791 10791 10791 10791 10792 10792 10791 10791 10790 10790 10789 10789 10788 10788 10787 10786 10785 10783 10781 10780 10778 10776 10774 10773 10771 10769 10767 10765 10762 10760 10758 10755 10752 10749 10746 10742 10739 10736 10732 10728 10725 10722 10718 10715 10711 10706 10701 10696 10690 10684 10676 10668 10660 10655 10652 10643 10631 10619
10765 10767 10768 10770 10771 10773 10774 10776 10777 10779 10780 10781 10782 10783 10784 10785 10786 10787 10787 10787 10788 10788 10788 10789 10789 10789 10789 10790 10790 10790 10790 10790 10790 10790 10790 10790 10789 10789 10788 10788 10787 10787 10786 10785 10784 10783 10781 10780 10778 10776 10774 10773 10771 10769 10767 10765 10763 10760 10758 10755 10753 10751 10749 10746 10743 10740 10737 10733 10729 10725 10721 10717 10714 10710 10706 10701 10695 10688 10682 10676 10669 10660 10653 10649 10644 10632 10620
10763 10765 10767 10769 10770 10772 10773 10775 10776 10777 10779 10780 10781 10782 10783 10784 10785 10786 10786 10786 10787 10787 10787 10788 10788 10788 10788 10789 10789 10789 10789 10789 10789 10789 10788 10788 10788 10787 10787 10786 10786 10785 10784 10783 10782 10781 10779 10778 10776 10774 10772 10771 10769 10767 10765 10763 10760 10758 10755 10752 10750 10748 10746 10744 10741 10738 10735 10732 10728 10724 10720 10715 10711 10705 10701 10697 10692 10685 10678 10672 10666 10659 10649 10639 10635 10631 10623
10761 10763 10765 10767 10768 10770 10772 10773 10774 10776 10777 10779 10780 10781 10782 10783 10784 10784 10785 10785 10786 10786 10786 10786 10787 10787 10787 10787 10787 10787 10787 10787 10787 10787 10787 10786 10786 10786 10785 10784 10784 10783 10782 10781 10780 10779 10777 10776 10774 10772 10770 10768 10767 10765 10763 10760 10758 10755 10752 10749 10746 10744 10741 10739 10736 10732 10729 10726 10723 10719 10715 10711 10706 10701 10695 10690 10687 10682 10675 10667 10661 10655 10648 10637 10628 10625 10621
10759 10761 10763 10764 10766 10768 10769 10771 10772 10774 10775 10777 10778 10779 10780 10781 10782 10782 10783 10784 10784 10784 10785 10785 10785 10785 10786 10786 10786 10786 10786 10786 10785 10785 10785 10784 10784 10784 10783 10782 10781 10780 10780 10779 10777 10776 10775 10773 10771 10770 10768 10766 10764 10762 10760 10758 10755 10752 10749 10746 10743 10740 10736 10733 10731 10729 10725 10721 10718 10715 10711 10707 10702 10697 10692 10686 10682 10678 10672 10665 10658 10651 10646 10639 10628 10620 10616
10758 10759 10760 10762 10764 10766 10767 10769 10770 10771 10773 10774 10776 10777 10778 10779 10780 10780 10781 10782 10782 10783 10783 10783 10784 10784 10784 10784 10784 10784 10783 10783 10783 10783 10783 10782 10782 10781 10781 10780 10779 10778 10777 10776 10775 10773 10772 10770 10769 10767 10766 10764 10762 10760 10757 10755 10752 10750 10747 10744 10741 10738 10734 10730 10727 10725 10722 10718 10715 10712 10708 10703 10699 10695 10690 10684 10678 10675 10671 10666 10658 10649 10642 10637 10629 10620 10612
10756 10757 10758 10760 10761 10763 10764 10766 10767 10769 10770 10772 10773 10774 10775 10777 10777 10778 10779 10780 10780 10781 10781 10781 10782 10782 10782 10782 10782 10781 10781 10781 10781 10780 10780 10780 10779 10779 10778 10777 10776 10775 10774 10773 10772 10771 10769 10768 10766 10765 10763 10761 10759 10757 10755 10753 10750 10748 10745 10742 10739 10736 10733 10729 10725 10721 10719 10715 10712 10708 10704 10700 10697 10693 10688 10682 10676 10672 10669 10665 10657 10649 10641 10634 10628 10620 10611
10754 10755 10757 10758 10759 10760 10762 10763 10764 10766 10767 10769 10770 10771 10772 10773 10774 10775 10776 10777 10778 10778 10779 10779 10779 10779 10779 10779 10779 10779 10779 10778 10778 10778 10778 10777 10777 10776 10775 10775 10774 10773 10772 10771 10770 10768 10767 10765 10764 10762 10761 10759 10757 10755 10752 10750 10748 10746 10744 10741 10738 10735 10732 10729 10724 10719 10716 10713 10709 10706 10703 10699 10696 10691 10686 10681 10675 10669 10664 10660 10654 10647 10640 10632 10625 10619 10612
10751 10753 10755 10756 10757 10758 10759 10760 10761 10762 10764 10765 10767 10768 10769 10770 10771 10772 10773 10774 10775 10775 10776 10776 10777 10777 10777 10777 10776 10777 10776 10776 10776 10775 10775 10775 10774 10773 10773 10772 10771 10770 10769 10768 10767 10765 10764 10763 10761 10759 10758 10756 10754 10752 10750 10748 10745 10743 10741 10739 10736 10733 10730 10727 10723 10718 10715 10713 10709 10705 10702 10698 10694 10689 10685 10679 10674 10665 10658 10654 10650 10642 10636 10630 10623 10615 10609
10746 10749 10751 10753 10755 10756 10757 10758 10758 10759 10761 10762 10763 10764 10765 10766 10767 10768 10769 10770 10771 10772 10772 10773 10773 10774 10774 10774 10774 10774 10773 10773 10773 10773 10772 10772 10771 10771 10770 10769 10768 10767 10766 10765 10764 10763 10761 10760 10758 10756 10755 10753 10751 10749 10747 10744 10742 10740 10738 10736 10734 10731 10727 10724 10722 10718 10713 10710 10707 10703 10700 10696 10691 10687 10683 10677 10671 10662 10652 10647 10645 10639 10632 10627 10621 10614 10606
10741 10743 10746 10748 10751 10753 10754 10755 10756 10757 10758 10758 10759 10760 10761 10762 10763 10764 10766 10766 10767 10768 10769 10769 10770 10770 10770 10771 10770 10770 10770 10770 10770 10770 10769 10768 10768 10768 10767 10766 10765 10764 10763 10762 10761 10759 10758 10756 10755 10753 10751 10749 10747 10745 10743 10741 10739 10736 10734 10732 10730 10728 10725 10721 10718 10715 10711 10707 10705 10701 10696 10693 10689 10685 10680 10674 10668 10661 10651 10642 10640 10636 10628 10622 10617 10609 10602
10737 10739 10740 10742 10745 10747 10750 10752 10753 10754 10755 10755 10756 10757 10757 10758 10759 10760 10762 10762 10763 10764 10765 10765 10766 10766 10767 10767 10767 10767 10767 10767 10766 10766 10766 10765 10765 10764 10763 10763 10762 10761 10760 10759 10757 10756 10754 10753 10751 10749 10748 10746 10743 10741 10739 10736 10734 10732 10730 10728 10726 10724 10722 10718 10714 10710 10707 10704 10703 10701 10695 10690 10686 10681 10675 10670 10665 10661 10654 10642 10636 10632 10625 10617 10612 10605 10598
10733 10735 10736 10738 10739 10741 10743 10746 10748 10750 10751 10752 10753 10754 10754 10755 10756 10756 10757 10758 10758 10759 10760 10761 10762 10762 10763 10763 10763 10763 10763 10763 10763 10762 10762 10761 10761 10760 10760 10759 10758 10757 10756 10755 10754 10752 10751 10749 10747 10746 10744 10742 10739 10737 10734 10732 10730 10728 10725 10723 10721 10719 10717 10715 10711 10706 10703 10700 10699 10698 10694 10688 10682 10677 10673 10669 10665 10661 10657 10647 10637 10631 10625 10617 10611 10605 10599
10729 10731 10732 10734 10735 10736 10737 10739 10741 10744 10746 10748 10749 10750 10751 10752 10752 10752 10753 10754 10754 10755 10756 10756 10757 10758 10758 10758 10759 10759 10759 10759 10759 10758 10758 10757 10757 10756 10755 10755 10754 10753 10752 10751 10750 10748 10747 10745 10743 10741 10739 10738 10736 10733 10730 10727 10725 10723 10721 10718 10715 10713 10712 10711 10708 10703 10699 10696 10694 10694 10692 10687 10682 10678 10674 10669 10663 10658 10654 10648 10639 10631 10624 10617 10610 10604 10597
10723 10725 10727 10729 10731 10732 10733 10734 10735 10737 10739 10741 10744 10745 10747 10748 10749 10749 10749 10750 10750 10750 10751 10752 10752 10753 10753 10754 10754 10755 10755 10754 10754 10754 10753 10753 10752 10752 10751 10750 10750 10749 10748 10747 10746 10744 10743 10741 10740 10738 10735 10733 10732 10729 10726 10723 10720 10717 10716 10714 10711 10709 10707 10705 10704 10699 10694 10690 10688 10689 10689 10685 10680 10675 10670 10666 10660 10654 10648 10643 10636 10629 10623 10616 10609 10601 10594
10717 10719 10721 10723 10725 10727 10728 10729 10730 10731 10733 10734 10736 10739 10741 10742 10744 10745 10745 10746 10746 10746 10747 10747 10748 10748 10749 10749 10749 10750 10750 10749 10750 10749 10748 10748 10748 10747 10746 10746 10745 10744 10743 10742 10741 10740 10738 10737 10735 10734 10732 10729 10728 10726 10722 10720 10717 10713 10712 10710 10707 10704 10702 10700 10697 10694 10689 10683 10680 10680 10681 10678 10674 10668 10664 10659 10654 10648 10643 10638 10633 10627 10621 10614 10607 10599 10591
10712 10713 10715 10716 10718 10720 10722 10724 10725 10726 10728 10728 10730 10732 10733 10735 10737 10739 10740 10741 10741 10742 10742 10743 10743 10744 10744 10744 10744 10744 10744 10744 10744 10744 10743 10742 10742 10742 10741 10741 10740 10739 10738 10738 10736 10735 10733 10732 10731 10730 10728 10725 10724 10723 10719 10716 10714 10710 10708 10707 10703 10700 10698 10696 10693 10689 10685 10680 10674 10673 10672 10669 10665 10662 10658 10654 10650 10644 10638 10632 10628 10622 10615 10607 10601 10594 10586
10704 10707 10709 10710 10711 10712 10714 10716 10718 10720 10722 10723 10724 10726 10726 10728 10730 10731 10733 10735 10735 10736 10737 10738 10738 10739 10739 10739 10739 10739 10739 10739 10739 10739 10738 10737 10736 10736 10736 10735 10734 10734 10733 10733 10731 10730 10729 10727 10726 10726 10724 10721 10719 10718 10715 10712 10709 10706 10704 10703 10700 10697 10695 10694 10691 10687 10683 10677 10671 10669 10669 10665 10659 10656 10653 10650 10646 10640 10634 10626 10620 10616 10608 10599 10592 10586 10579
10698 10699 10701 10703 10705 10706 10707 10708 10710 10712 10714 10716 10718 10720 10721 10722 10723 10724 10726 10727 10728 10730 10731 10732 10732 10733 10733 10733 10733 10733 10734 10733 10733 10733 10733 10732 10731 10731 10731 10730 10729 10728 10728 10727 10726 10725 10724 10722 10720 10720 10719 10716 10714 10714 10711 10708 10703 10700 10700 10698 10695 10693 10692 10692 10689 10684 10681 10675 10667 10664 10665 10662 10655 10652 10649 10645 10641 10635 10630 10622 10614 10607 10601 10593 10586 10580 10574
10692 10693 10694 10696 10698 10699 10701 10702 10703 10704 10706 10708 10710 10712 10714 10715 10717 10718 10719 10720 10721 10722 10723 10725 10726 10726 10727 10727 10727 10727 10728 10728 10728 10728 10727 10727 10726 10725 10725 10724 10723 10723 10723 10722 10720 10719 10719 10717 10715 10714 10714 10711 10710 10709 10708 10705 10698 10692 10692 10691 10688 10686 10688 10688 10686 10681 10676 10672 10664 10659 10659 10656 10650 10645 10642 10639 10634 10629 10623 10617 10608 10600 10594 10589 10583 10577 10572
10685 10686 10688 10689 10690 10692 10693 10695 10696 10698 10699 10700 10702 10704 10706 10708 10709 10711 10712 10713 10715 10715 10716 10718 10719 10719 10720 10721 10720 10721 10722 10721 10722 10722 10721 10721 10720 10720 10720 10719 10718 10718 10717 10716 10715 10714 10713 10712 10710 10709 10708 10706 10705 10703 10703 10703 10698 10689 10684 10681 10677 10677 10681 10682 10680 10676 10671 10666 10660 10654 10650 10645 10640 10637 10634 10628 10624 10619 10615 10611 10605 10598 10592 10587 10581 10575 10568
10677 10679 10681 10683 10684 10685 10686 10687 10689 10691 10692 10694 10695 10696 10697 10699 10701 10703 10704 10706 10708 10709 10709 10711 10711 10712 10713 10713 10714 10715 10715 10715 10716 10715 10715 10715 10714 10714 10714 10713 10713 10712 10711 10710 10710 10708 10707 10707 10705 10704 10703 10700 10700 10699 10697 10697 10696 10690 10684 10675 10666 10667 10674 10677 10675 10672 10666 10659 10654 10650 10645 10636 10628 10627 10626 10621 10614 10609 10605 10603 10599 10594 10588 10583 10578 10572 10565
10669 10670 10673 10675 10677 10678 10679 10680 10681 10683 10684 10686 10688 10689 10690 10691 10693 10694 10696 10698 10700 10701 10702 10703 10704 10705 10706 10706 10707 10708 10708 10708 10709 10708 10709 10709 10708 10708 10707 10707 10707 10706 10704 10704 10704 10702 10702 10701 10699 10699 10697 10693 10694 10695 10693 10692 10690 10687 10683 10672 10659 10659 10668 10671 10670 10669 10664 10656 10649 10645 10643 10635 10624 10622 10622 10617 10611 10606 10601 10598 10595 10589 10584 10579 10574 10568 10562
10660 10662 10664 10667 10669 10671 10672 10673 10674 10675 10676 10678 10680 10681 10682 10683 10685 10686 10688 10689 10691 10693 10694 10696 10697 10697 10698 10699 10700 10701 10701 10701 10702 10701 10702 10702 10701 10701 10700 10699 10700 10699 10698 10697 10697 10696 10696 10695 10693 10693 10691 10688 10688 10689 10688 10687 10685 10683 10680 10666 10651 10654 10664 10665 10665 10665 10662 10656 10648 10643 10640 10633 10624 10621 10620 10615 10609 10605 10599 10595 10591 10585 10580 10575 10570 10565 10559
10652 10653 10655 10658 10661 10662 10664 10665 10667 10668 10669 10670 10671 10672 10674 10675 10676 10678 10680 10681 10682 10684 10686 10688 10688 10689 10691 10692 10693 10694 10694 10694 10694 10694 10694 10694 10695 10694 10693 10692 10692 10691 10690 10690 10690 10689 10689 10688 10686 10686 10684 10682 10682 10682 10682 10682 10679 10679 10676 10658 10642 10648 10658 10659 10660 10663 10658 10652 10646 10642 10638 10629 10618 10616 10616 10610 10605 10601 10595 10591 10588 10582 10577 10572 10567 10562 10557
10643 10645 10646 10649 10652 10654 10655 10657 10659 10660 10662 10662 10663 10665 10666 10666 10668 10669 10671 10672 10674 10675 10678 10680 10679 10680 10683 10685 10685 10686 10686 10686 10687 10687 10686 10687 10687 10686 10685 10684 10683 10683 10683 10682 10682 10682 10681 10680 10679 10678 10676 10676 10676 10676 10678 10677 10673 10673 10667 10646 10634 10642 10649 10647 10652 10659 10656 10649 10641 10638 10637 10629 10616 10612 10612 10608 10603 10599 10593 10589 10585 10580 10575 10570 10564 10558 10552
10634 10635 10637 10639 10642 10645 10647 10648 10650 10652 10654 10655 10656 10657 10657 10658 10659 10660 10662 10664 10665 10666 10669 10672 10671 10672 10676 10677 10676 10677 10678 10679 10679 10679 10679 10679 10678 10678 10677 10676 10675 10675 10675 10674 10674 10674 10673 10673 10672 10669 10667 10668 10668 10670 10674 10674 10670 10668 10655 10632 10626 10637 10640 10636 10640 10649 10650 10643 10633 10630 10632 10626 10615 10611 10610 10605 10602 10597 10591 10586 10581 10576 10571 10566 10560 10554 10548
10622 10625 10627 10630 10632 10635 10637 10639 10641 10643 10645 10646 10648 10649 10649 10650 10651 10652 10653 10654 10656 10657 10660 10664 10664 10664 10667 10668 10668 10669 10671 10671 10671 10671 10671 10670 10670 10669 10669 10668 10667 10666 10665 10666 10666 10666 10665 10665 10665 10661 10659 10658 10659 10665 10670 10669 10668 10663 10644 10621 10618 10629 10631 10627 10631 10639 10641 10636 10627 10624 10623 10616 10609 10608 10604 10598 10596 10592 10585 10580 10576 10571 10566 10561 10557 10552 10546
10611 10614 10617 10620 10623 10625 10627 10629 10631 10633 10635 10637 10639 10640 10641 10641 10642 10643 10644 10645 10646 10648 10651 10654 10656 10658 10660 10660 10660 10662 10663 10663 10663 10663 10662 10662 10661 10661 10659 10658 10657 10656 10656 10657 10657 10657 10658 10658 10656 10653 10651 10650 10652 10659 10665 10664 10663 10657 10635 10614 10612 10621 10622 10619 10623 10630 10632 10627 10621 10618 10615 10607 10603 10602 10597 10591 10589 10586 10579 10574 10570 10565 10561 10556 10551 10547 10542
10601 10603 10606 10610 10613 10615 10617 10618 10620 10623 10625 10627 10629 10631 10632 10633 10633 10634 10635 10636 10637 10639 10641 10645 10648 10650 10652 10653 10654 10654 10655 10655 10655 10655 10654 10653 10652 10651 10650 10649 10647 10647 10647 10648 10648 10649 10650 10650 10648 10646 10644 10641 10645 10654 10659 10657 10655 10648 10629 10611 10606 10610 10613 10616 10619 10622 10621 10617 10615 10613 10606 10599 10597 10596 10590 10584 10582 10579 10574 10569 10565 10560 10556 10551 10546 10541 10536
10591 10593 10595 10598 10601 10604 10606 10608 10609 10612 10614 10617 10619 10621 10622 10623 10625 10625 10626 10627 10628 10630 10632 10636 10640 10642 10645 10647 10648 10647 10646 10646 10646 10646 10645 10644 10643 10641 10640 10639 10638 10637 10638 10638 10639 10640 10642 10642 10640 10638 10637 10637 10641 10648 10651 10649 10642 10632 10622 10612 10602 10599 10605 10612 10615 10615 10610 10607 10608 10607 10600 10591 10589 10588 10585 10580 10575 10572 10568 10563 10559 10555 10550 10545 10541 10536 10531
10580 10583 10585 10586 10588 10592 10595 10597 10599 10601 10603 10606 10608 10609 10611 10613 10614 10616 10616 10617 10618 10621 10623 10627 10631 10635 10638 10641 10641 10639 10638 10637 10637 10636 10635 10634 10633 10631 10630 10629 10628 10627 10628 10629 10630 10631 10635 10635 10632 10630 10632 10635 10639 10642 10644 10639 10623 10610 10609 10610 10601 10595 10600 10608 10612 10610 10603 10597 10599 10602 10598 10590 10583 10579 10578 10576 10572 10568 10563 10558 10554 10550 10544 10539 10536 10531 10525
10568 10571 10573 10574 10576 10579 10582 10585 10588 10590 10593 10595 10597 10598 10600 10601 10603 10605 10607 10608 10609 10611 10614 10618 10623 10627 10630 10633 10634 10632 10629 10628 10626 10625 10624 10624 10622 10621 10620 10619 10618 10618 10619 10619 10620 10623 10629 10628 10623 10623 10628 10632 10635 10638 10638 10627 10606 10590 10591 10599 10598 10594 10598 10605 10607 10604 10597 10592 10591 10594 10594 10590 10582 10575 10572 10570 10567 10564 10560 10554 10550 10546 10539 10534 10530 10525 10519
10556 10558 10560 10563 10565 10567 10569 10572 10575 10578 10582 10584 10587 10589 10589 10590 10592 10594 10596 10598 10600 10602 10606 10610 10614 10617 10620 10623 10626 10625 10620 10617 10615 10614 10613 10613 10612 10611 10609 10608 10607 10607 10608 10609 10612 10617 10621 10619 10616 10619 10626 10629 10631 10632 10626 10613 10595 10578 10576 10584 10589 10590 10595 10602 10601 10596 10590 10586 10585 10585 10585 10584 10580 10572 10567 10564 10561 10558 10556 10551 10547 10542 10536 10529 10525 10520 10514
10543 10546 10548 10551 10553 10555 10557 10559 10562 10566 10569 10572 10576 10579 10579 10580 10581 10583 10585 10588 10590 10593 10597 10599 10602 10607 10611 10612 10615 10615 10611 10607 10606 10603 10601 10602 10601 10598 10596 10596 10597 10597 10597 10600 10606 10611 10611 10608 10609 10617 10624 10627 10627 10621 10610 10599 10588 10572 10565 10572 10578 10579 10587 10597 10597 10590 10584 10581 10579 10578 10577 10576 10573 10567 10562 10557 10554 10552 10550 10545 10541 10537 10531 10524 10519 10514 10508
10531 10533 10536 10539 10541 10543 10545 10546 10549 10553 10556 10558 10563 10567 10569 10571 10571 10571 10574 10577 10578 10581 10586 10588 10592 10599 10601 10599 10601 10603 10600 10598 10598 10594 10590 10590 10589 10586 10583 10584 10585 10586 10587 10592 10600 10604 10602 10600 10604 10612 10620 10625 10622 10610 10594 10585 10578 10567 10561 10564 10565 10565 10574 10586 10589 10587 10584 10578 10572 10571 10571 10569 10566 10562 10557 10551 10546 10544 10543 10539 10534 10531 10526 10519 10513 10508 10502
10520 10521 10524 10527 10529 10531 10533 10535 10537 10541 10543 10546 10549 10553 10557 10561 10561 10562 10565 10567 10567 10570 10574 10576 10583 10589 10586 10583 10587 10591 10589 10588 10589 10585 10580 10578 10576 10574 10573 10573 10572 10574 10578 10586 10593 10594 10593 10594 10598 10606 10615 10620 10614 10598 10582 10573 10568 10562 10555 10550 10549 10556 10566 10572 10573 10576 10579 10575 10568 10565 10566 10564 10560 10555 10550 10545 10540 10536 10535 10532 10528 10525 10520 10514 10508 10502 10497
10509 10510 10512 10515 10517 10519 10521 10524 10526 10529 10531 10533 10536 10540 10544 10548 10551 10554 10556 10556 10557 10560 10561 10564 10571 10575 10569 10567 10574 10578 10575 10575 10576 10574 10571 10567 10564 10562 10562 10562 10561 10564 10571 10580 10585 10585 10585 10587 10590 10598 10612 10616 10602 10584 10571 10564 10563 10559 10546 10532 10530 10544 10558 10562 10561 10562 10566 10566 10562 10557 10556 10556 10554 10548 10542 10538 10533 10529 10527 10525 10522 10519 10514 10508 10502 10497 10491
10499 10500 10501 10503 10505 10507 10510 10513 10515 10517 10519 10522 10524 10528 10531 10534 10538 10542 10545 10545 10546 10548 10549 10551 10557 10557 10552 10552 10559 10562 10560 10560 10562 10562 10560 10556 10552 10552 10552 10553 10554 10556 10562 10571 10577 10576 10577 10578 10578 10589 10608 10610 10589 10570 10562 10557 10554 10552 10542 10526 10518 10524 10536 10546 10549 10549 10551 10553 10553 10549 10546 10547 10546 10541 10535 10530 10526 10522 10519 10516 10514 10512 10508 10502 10497 10491 10486
10489 10490 10491 10492 10494 10496 10498 10501 10503 10505 10508 10510 10512 10516 10519 10521 10524 10527 10529 10532 10535 10536 10536 10539 10542 10540 10536 10538 10543 10546 10545 10544 10546 10548 10547 10545 10544 10545 10546 10547 10548 10548 10553 10562 10566 10565 10565 10566 10567 10582 10602 10599 10575 10560 10557 10551 10544 10541 10537 10528 10519 10513 10515 10524 10533 10535 10536 10539 10540 10538 10536 10536 10535 10533 10529 10524 10519 10515 10512 10508 10505 10503 10500 10496 10490 10484 10479
10479 10480 10481 10481 10483 10485 10487 10490 10492 10495 10497 10498 10500 10504 10507 10509 10511 10512 10514 10518 10522 10521 10521 10525 10527 10526 10523 10523 10526 10530 10531 10529 10529 10532 10535 10536 10538 10540 10540 10540 10539 10539 10545 10552 10553 10551 10552 10553 10558 10576 10591 10582 10561 10553 10554 10548 10540 10534 10527 10520 10514 10508 10504 10508 10514 10518 10521 10526 10528 10527 10525 10524 10523 10521 10519 10516 10513 10509 10505 10501 10498 10495 10493 10489 10483 10476 10472
10467 10469 10471 10472 10472 10474 10476 10479 10481 10484 10486 10488 10490 10493 10496 10497 10498 10498 10499 10502 10505 10506 10507 10510 10511 10511 10510 10510 10511 10514 10516 10515 10516 10520 10523 10526 10529 10531 10530 10529 10529 10531 10537 10540 10539 10538 10541 10542 10551 10569 10576 10561 10547 10547 10549 10544 10539 10532 10520 10509 10503 10498 10495 10495 10498 10499 10502 10507 10512 10513 10513 10513 10512 10510 10507 10506 10504 10501 10497 10494 10491 10488 10487 10482 10475 10468 10464
10456 10458 10460 10462 10463 10463 10466 10468 10470 10473 10476 10479 10481 10483 10485 10484 10484 10485 10486 10487 10489 10491 10493 10495 10496 10496 10496 10497 10499 10501 10503 10504 10505 10508 10510 10513 10516 10517 10518 10519 10520 10523 10526 10526 10526 10528 10531 10533 10543 10557 10555 10541 10535 10540 10542 10538 10535 10530 10519 10505 10495 10489 10487 10487 10485 10483 10483 10486 10492 10497 10500 10501 10501 10499 10496 10495 10495 10492 10489 10485 10482 10481 10480 10474 10466 10459 10455
10445 10447 10450 10452 10453 10454 10456 10460 10462 10464 10467 10470 10471 10473 10473 10472 10471 10471 10472 10473 10474 10476 10478 10479 10481 10482 10483 10484 10485 10488 10490 10492 10493 10494 10496 10499 10502 10504 10505 10507 10509 10511 10512 10513 10517 10520 10522 10525 10534 10538 10532 10525 10526 10531 10531 10528 10525 10522 10517 10506 10493 10485 10483 10481 10476 10470 10466 10464 10467 10474 10482 10487 10490 10488 10485 10483 10482 10482 10480 10476 10472 10472 10471 10464 10456 10451 10447
10435 10437 10439 10441 10443 10445 10448 10451 10454 10456 10458 10460 10460 10459 10459 10458 10457 10458 10459 10459 10459 10460 10461 10463 10466 10468 10469 10470 10472 10474 10476 10478 10480 10480 10482 10485 10487 10489 10491 10493 10496 10498 10500 10503 10508 10511 10513 10517 10520 10517 10511 10512 10516 10516 10514 10514 10513 10511 10510 10505 10494 10484 10481 10477 10471 10464 10457 10450 10445 10445 10450 10458 10467 10472 10473 10471 10468 10468 10469 10468 10466 10463 10460 10453 10447 10443 10440
10426 10427 10428 10431 10435 10437 10439 10444 10448 10448 10446 10445 10444 10444 10444 10444 10444 10444 10445 10445 10444 10444 10446 10448 10450 10452 10454 10456 10458 10460 10462 10463 10464 10466 10469 10471 10473 10476 10478 10479 10481 10485 10489 10493 10498 10502 10504 10504 10500 10494 10493 10499 10502 10499 10497 10499 10498 10496 10498 10497 10489 10481 10476 10473 10469 10463 10455 10448 10441 10435 10430 10429 10434 10442 10450 10455 10455 10453 10453 10456 10456 10454 10448 10442 10438 10436 10433
10417 10418 10418 10422 10428 10430 10432 10435 10436 10435 10432 10430 10430 10430 10430 10431 10431 10431 10431 10431 10431 10431 10431 10432 10434 10435 10438 10440 10442 10446 10449 10449 10448 10451 10454 10456 10458 10462 10466 10468 10471 10476 10479 10482 10487 10491 10489 10483 10477 10475 10478 10483 10485 10483 10484 10485 10484 10482 10482 10481 10478 10474 10470 10467 10465 10461 10452 10444 10439 10434 10428 10422 10419 10418 10421 10428 10433 10434 10437 10440 10442 10440 10435 10430 10428 10426 10424
10408 10409 10411 10415 10420 10423 10424 10422 10420 10420 10420 10419 10417 10417 10418 10419 10419 10418 10417 10416 10416 10416 10416 10416 10417 10419 10421 10424 10427 10430 10433 10434 10434 10436 10439 10440 10443 10449 10455 10459 10462 10467 10469 10470 10474 10475 10470 10461 10459 10461 10462 10462 10464 10467 10469 10469 10468 10466 10465 10464 10463 10461 10459 10457 10457 10455 10448 10440 10433 10428 10423 10420 10417 10412 10409 10408 10409 10411 10415 10420 10424 10423 10420 10416 10415 10415 10414
10398 10401 10405 10408 10411 10414 10412 10406 10405 10409 10410 10406 10402 10404 10406 10406 10406 10406 10404 10403 10403 10403 10402 10403 10404 10405 10407 10410 10412 10415 10419 10421 10420 10421 10424 10429 10433 10438 10441 10445 10450 10457 10462 10460 10457 10455 10450 10445 10444 10445 10444 10442 10444 10449 10451 10451 10450 10450 10448 10446 10446 10445 10443 10444 10444 10442 10437 10433 10428 10423 10418 10414 10411 10408 10405 10401 10397 10394 10395 10398 10402 10403 10402 10400 10400 10401 10403
10388 10393 10398 10399 10400 10402 10398 10391 10392 10399 10399 10393 10390 10392 10393 10393 10394 10395 10393 10392 10392 10391 10391 10391 10392 10392 10393 10396 10399 10402 10405 10406 10404 10405 10413 10422 10426 10426 10427 10432 10440 10448 10451 10445 10436 10433 10433 10432 10429 10427 10426 10424 10425 10427 10430 10431 10432 10433 10431 10430 10429 10429 10428 10428 10427 10425 10423 10422 10420 10417 10413 10409 10403 10399 10396 10393 10390 10386 10383 10381 10381 10380 10380 10380 10382 10386 10389
10380 10386 10390 10388 10386 10387 10384 10380 10382 10388 10388 10382 10379 10379 10379 10380 10382 10382 10381 10381 10381 10380 10379 10380 10379 10377 10379 10383 10386 10387 10388 10389 10391 10396 10405 10414 10416 10414 10417 10425 10432 10432 10429 10422 10414 10413 10416 10417 10412 10409 10410 10410 10408 10407 10408 10409 10411 10412 10412 10412 10413 10414 10414 10412 10411 10410 10410 10410 10408 10406 10403 10400 10396 10391 10386 10382 10379 10377 10374 10370 10366 10360 10358 10361 10366 10369 10371
10373 10376 10377 10376 10374 10373 10371 10369 10371 10374 10375 10372 10369 10368 10369 10369 10369 10367 10368 10369 10369 10368 10368 10365 10362 10362 10367 10371 10371 10370 10371 10376 10384 10391 10398 10405 10407 10406 10408 10414 10415 10410 10402 10398 10396 10396 10398 10398 10396 10394 10394 10393 10391 10390 10389 10389 10390 10391 10391 10391 10392 10393 10394 10395 10396 10397 10398 10397 10396 10393 10390 10387 10384 10381 10376 10372 10369 10365 10361 10359 10355 10349 10344 10345 10350 10354 10355